DW0156 Weather Reports


time (UTC)temp
C
wind
direction
speed
KPH
gust
KPH
rain 1hr
cm
rain 24hr
cm
rain mn
cm
humidity
%
barometer
mb
20260502170114 13 263 3.2 9.7 0.00 0.76 0.15 87 1009.9
20260502164138 13 263 3.2 12.9 0.23 0.76 0.15 85 1010.1
20260502163022 13 263 3.2 14.5 3.00 0.61 0.05 83 1010.1
20260502162521 14 263 3.2 14.5 0.00 0.61 0.00 82 1010.1
20260502161407 14 263 1.6 8.0 0.00 0.61 0.00 81 1010.2
20260502160242 14 263 1.6 6.4 0.00 0.61 0.00 81 1010.2
20260502152108 15 263 1.6 9.7 0.00 0.61 0.00 79 1010.4
20260502151606 15 263 1.6 9.7 0.00 0.61 0.00 80 1010.4
20260502151059 15 263 1.6 9.7 0.00 0.61 0.00 80 1010.6
20260502150542 15 263 0.0 8.0 0.00 0.61 0.00 81 1010.6
20260502130501 14 263 3.2 12.9 0.00 0.61 0.61 91 1011.1
20260502123701 14 263 3.2 9.7 0.00 0.61 0.61 91 1011.2
20260502123206 14 263 3.2 8.0 0.00 0.61 0.61 91 1011.2
20260502122657 14 263 1.6 9.7 0.00 0.61 0.61 91 1011.2
20260502122139 14 263 1.6 9.7 0.00 0.61 0.61 91 1011.2
20260502121646 14 263 3.2 9.7 0.00 0.61 0.61 91 1011.2
20260502121139 15 263 3.2 9.7 0.00 0.61 0.61 91 1011.1
20260502120626 15 263 3.2 16.1 0.00 0.61 0.61 91 1011.1
20260502120128 15 263 3.2 16.1 0.00 0.61 0.61 91 1011.1
20260502115632 15 263 3.2 16.1 0.00 0.61 0.61 91 1011.1
20260502115117 15 263 3.2 16.1 0.00 0.61 0.61 91 1011.1
20260502114004 15 263 3.2 14.5 0.00 0.61 0.61 91 1010.9
20260502113508 15 263 3.2 14.5 0.00 0.61 0.61 91 1010.9
20260502112410 15 263 3.2 14.5 0.00 0.61 0.61 91 1010.7
20260502111851 15 263 3.2 14.5 0.00 0.61 0.61 92 1010.7
20260502111346 15 263 4.8 12.9 0.00 0.61 0.61 92 1010.5
20260502110226 14 263 3.2 11.3 0.00 0.61 0.61 92 1010.5
20260502105712 14 263 3.2 11.3 0.00 0.61 0.61 92 1010.6
20260502105214 14 263 3.2 12.9 0.00 0.61 0.61 92 1010.6
20260502104719 14 263 3.2 12.9 0.00 0.61 0.61 92 1010.6
20260502104209 14 263 3.2 12.9 0.00 0.61 0.61 92 1010.3
20260502103717 14 263 3.2 12.9 0.00 0.61 0.61 92 1010.3
20260502103159 14 263 1.6 8.0 0.00 0.61 0.61 92 1010.3
20260502102049 14 263 1.6 8.0 0.00 0.61 0.61 92 1010.1
20260502101535 14 263 1.6 6.4 0.00 0.61 0.61 92 1010.1
20260502101032 14 263 1.6 8.0 0.00 0.61 0.61 92 1010.2
20260502100527 14 263 1.6 8.0 0.00 0.58 0.61 92 1010.2
20260502091512 15 263 0.0 6.4 0.00 0.58 0.58 92 1010.0
20260502091006 15 263 1.6 8.0 0.00 0.58 0.58 92 1009.9
20260502090454 15 263 1.6 8.0 0.00 0.58 0.58 91 1009.9
20260502071036 15 263 1.6 22.5 0.08 0.58 0.58 90 1009.9
20260502070538 15 263 3.2 22.5 0.15 0.58 0.58 90 1009.9
20260502070036 15 263 3.2 22.5 0.15 0.58 0.58 90 1009.9
20260502065522 15 263 3.2 12.9 0.00 0.56 0.56 90 1009.9
20260502065007 15 263 4.8 12.9 0.00 0.56 0.56 90 1009.9
20260502064510 15 263 3.2 12.9 0.00 0.56 0.56 90 1009.9
20260502064005 15 263 3.2 8.0 0.00 0.56 0.56 90 1009.4
20260502063506 15 263 1.6 8.0 0.00 0.56 0.56 90 1009.4
20260502062346 15 263 1.6 8.0 0.00 0.56 0.56 89 1009.1
20260502061214 16 263 1.6 8.0 0.08 0.56 0.56 89 1009.3
20260502060043 16 263 1.6 8.0 0.10 0.53 0.53 89 1009.3
20260502054905 16 263 0.0 9.7 0.18 0.51 0.51 89 1009.5
20260502053740 16 263 0.0 3.2 0.15 0.46 0.46 89 1009.5
20260502053250 16 263 0.0 4.8 0.08 0.46 0.46 88 1009.5
20260502052137 16 263 0.0 9.7 0.10 0.43 0.43 88 1009.1
20260502051636 16 263 1.6 9.7 0.10 0.43 0.43 88 1009.1
20260502051125 16 263 1.6 9.7 0.13 0.41 0.41 88 1009.3
20260502050634 16 263 0.0 8.0 0.25 0.41 0.41 87 1009.3
20260502050129 16 263 0.0 8.0 0.18 0.38 0.38 87 1009.3
20260502045616 16 263 1.6 14.5 0.25 0.36 0.36 87 1009.4
20260502045112 16 263 0.0 14.5 0.15 0.33 0.36 87 1009.4
20260502044559 16 263 3.2 14.5 0.36 0.33 0.33 86 1009.4
20260502044103 16 263 3.2 14.5 0.81 0.28 0.30 86 1009.5
20260502042935 16 263 1.6 12.9 0.10 0.23 0.23 85 1009.5
20260502042441 16 263 0.0 12.9 0.18 0.20 0.20 85 1009.3
20260502041936 16 263 0.0 4.8 0.64 0.20 0.20 85 1009.3
20260502041442 16 263 0.0 3.2 0.00 0.18 0.18 84 1009.3
20260502040924 17 263 0.0 9.7 0.00 0.18 0.18 84 1009.3
20260502035353 17 263 0.0 8.0 0.36 0.18 0.18 83 1009.5
20260502034839 17 263 0.0 8.0 0.38 0.13 0.15 82 1009.5
20260502034340 17 263 0.0 3.2 0.00 0.13 0.13 82 1009.2
20260502033848 17 263 0.0 3.2 0.00 0.13 0.13 81 1009.2
20260502033345 17 263 0.0 3.2 0.08 0.13 0.13 81 1009.2
20260502032843 17 263 0.0 4.8 0.10 0.13 0.13 80 1009.3
20260502032351 17 263 0.0 9.7 0.15 0.13 0.13 79 1009.3
20260502031228 18 263 4.8 17.7 0.36 0.10 0.10 76 1009.5
20260502030729 18 263 6.4 17.7 0.28 0.08 0.08 74 1009.5
20260502030226 18 263 4.8 17.7 0.00 0.05 0.05 71 1009.5
20260502025734 18 263 4.8 19.3 0.00 0.05 0.05 70 1009.0
20260502025224 18 263 6.4 19.3 0.00 0.05 0.05 70 1009.0
20260502024724 19 263 6.4 19.3 0.00 0.05 0.05 70 1009.0
20260502024229 19 263 6.4 19.3 0.00 0.05 0.05 71 1009.4
20260502023105 19 263 4.8 17.7 0.00 0.05 0.05 73 1009.4
20260502021946 19 263 4.8 17.7 0.00 0.05 0.05 74 1009.4
20260502021433 19 263 4.8 14.5 0.00 0.05 0.05 74 1009.4
20260502020938 19 263 4.8 24.1 0.00 0.05 0.05 74 1009.5
20260502015837 20 263 9.7 24.1 0.00 0.05 0.05 71 1009.4
20260502015342 20 263 9.7 24.1 0.00 0.05 0.05 70 1009.4
20260502014824 21 263 9.7 24.1 0.00 0.05 0.05 66 1009.4
20260502014326 21 263 6.4 24.1 0.00 0.05 0.05 62 1009.0
20260502013815 21 263 8.0 24.1 0.00 0.05 0.05 56 1009.0
20260502013314 21 263 8.0 24.1 0.00 0.05 0.05 55 1009.0
20260502012819 22 263 6.4 29.0 0.00 0.05 0.05 55 1009.0
20260502012317 22 263 8.0 29.0 0.00 0.05 0.05 55 1009.0
20260502011758 22 263 9.7 29.0 0.00 0.05 0.05 54 1009.0
20260502011302 22 263 8.0 29.0 0.00 0.05 0.05 53 1009.2
20260502010756 21 263 8.0 20.9 0.00 0.05 0.05 55 1009.2
20260502010252 21 263 6.4 20.9 0.00 0.05 0.05 57 1009.2
20260502005735 21 263 8.0 20.9 0.00 0.05 0.05 59 1009.4
20260502004019 19 263 6.4 17.7 0.00 0.05 0.05 67 1009.5
20260502003515 18 263 4.8 17.7 0.00 0.05 0.05 70 1009.5
20260502002956 18 263 3.2 14.5 0.00 0.05 0.05 72 1009.5
20260502001804 18 263 4.8 14.5 0.00 0.03 0.03 73 1009.5
20260502001304 18 263 4.8 14.5 0.00 0.03 0.03 73 1009.9
20260502000803 18 263 4.8 16.1 0.00 0.03 0.03 72 1009.9
20260502000300 18 263 4.8 16.1 0.00 0.03 0.03 70 1009.9
20260501235742 18 263 4.8 17.7 0.00 0.00 0.00 70 1009.8
20260501235251 18 263 4.8 17.7 0.00 0.00 0.00 69 1009.8
20260501234745 19 263 4.8 22.5 0.00 0.00 0.00 68 1009.8
20260501233614 19 263 6.4 37.0 0.00 0.00 0.00 67 1010.0
20260501233103 20 263 9.7 37.0 0.00 0.00 0.00 64 1010.0
20260501232544 21 263 12.9 37.0 0.00 0.00 0.00 58 1010.0
20260501232036 21 263 14.5 37.0 0.00 0.00 0.00 55 1010.0
20260501231538 22 263 11.3 35.4 0.00 0.00 0.00 51 1010.0
20260501231039 22 263 11.3 35.4 0.00 0.00 0.00 47 1009.3
20260501230530 23 263 9.7 32.2 0.00 0.00 0.00 44 1009.3
20260501230026 23 263 6.4 27.4 0.00 0.00 0.00 43 1009.3
20260501225531 23 263 6.4 27.4 0.00 0.00 0.00 43 1009.4
20260501225041 23 263 8.0 27.4 0.00 0.00 0.00 42 1009.4
20260501223250 23 263 9.7 24.1 0.00 0.00 0.00 39 1009.1
20260501222746 23 263 9.7 37.0 0.00 0.00 0.00 39 1008.9
20260501222253 23 263 8.0 37.0 0.00 0.00 0.00 39 1008.9
20260501221738 23 263 9.7 37.0 0.00 0.00 0.00 38 1008.9
20260501221226 24 263 11.3 37.0 0.00 0.00 0.00 38 1008.7
20260501220731 24 263 12.9 22.5 0.00 0.00 0.00 38 1008.7
20260501220229 24 263 11.3 24.1 0.00 0.00 0.00 38 1008.7
20260501215724 23 263 8.0 24.1 0.00 0.00 0.00 38 1008.1
20260501215204 23 263 8.0 24.1 0.00 0.00 0.00 38 1008.1
20260501214054 23 263 8.0 25.7 0.00 0.00 0.00 38 1007.9
20260501213558 23 263 9.7 25.7 0.00 0.00 0.00 38 1007.9
20260501213103 23 263 9.7 25.7 0.00 0.00 0.00 38 1007.9
20260501212549 23 263 8.0 25.7 0.00 0.00 0.00 39 1007.9
20260501211422 23 263 8.0 20.9 0.00 0.00 0.00 39 1007.9
20260501210925 23 263 6.4 20.9 0.00 0.00 0.00 38 1008.2
20260501210413 23 263 8.0 20.9 0.00 0.00 0.00 38 1008.2
20260501204628 23 263 8.0 27.4 0.00 0.00 0.00 38 1008.1
20260501204118 23 263 11.3 27.4 0.00 0.00 0.00 38 1008.3
20260501203621 23 263 9.7 29.0 0.00 0.00 0.00 38 1008.3
20260501202509 23 263 9.7 29.0 0.00 0.00 0.00 38 1008.4
20260501201333 23 263 9.7 24.1 0.00 0.00 0.00 37 1008.6
20260501200839 23 263 9.7 25.7 0.00 0.00 0.00 37 1008.6
20260501200328 23 263 9.7 25.7 0.00 0.00 0.00 37 1008.6
20260501195820 23 263 9.7 25.7 0.00 0.00 0.00 37 1008.6
20260501194813 23 263 8.0 25.7 0.00 0.00 0.00 37 1008.6
20260501194320 23 263 9.7 25.7 0.00 0.00 0.00 37 1008.8
20260501193815 23 263 9.7 22.5 0.00 0.00 0.00 37 1008.8
20260501193322 23 263 9.7 27.4 0.00 0.00 0.00 37 1008.8
20260501192812 23 263 9.7 27.4 0.00 0.00 0.00 37 1008.8
20260501192316 23 263 9.7 30.6 0.00 0.00 0.00 37 1008.8
20260501191800 23 263 9.7 30.6 0.00 0.00 0.00 37 1008.8
20260501191256 23 263 11.3 30.6 0.00 0.00 0.00 37 1008.8
20260501190759 23 263 9.7 30.6 0.00 0.00 0.00 37 1008.8
20260501190305 23 263 8.0 27.4 0.00 0.00 0.00 37 1008.8
20260501185747 23 263 8.0 27.4 0.00 0.00 0.00 37 1008.9
20260501185255 23 263 9.7 27.4 0.00 0.00 0.00 37 1008.9
20260501184739 23 263 9.7 27.4 0.00 0.00 0.00 37 1008.9
20260501184219 23 263 8.0 24.1 0.00 0.00 0.00 37 1008.9
20260501183040 23 263 9.7 27.4 0.00 0.00 0.00 37 1008.9
20260501182548 23 263 11.3 27.4 0.00 0.00 0.00 37 1009.0
20260501182045 23 263 9.7 27.4 0.00 0.00 0.00 37 1009.0
20260501181528 23 263 9.7 27.4 0.00 0.00 0.00 37 1009.0
20260501181036 23 263 9.7 25.7 0.00 0.00 0.00 37 1009.3
20260501180026 23 263 9.7 27.4 0.00 0.00 0.00 37 1009.3
20260501174843 23 263 9.7 27.4 0.00 0.00 0.00 37 1009.4
20260501174323 24 263 11.3 27.4 0.00 0.00 0.00 36 1009.5
20260501173827 24 263 9.7 24.1 0.00 0.00 0.00 36 1009.5
20260501173332 24 263 9.7 29.0 0.00 0.00 0.00 36 1009.5